Time,TemperatureF,DewpointF,PressureIn,WindDirection,WindDirectionDegrees,WindSpeedMPH,WindSpeedGustMPH,Humidity,HourlyPrecipIn,Conditions,Clouds,dailyrainin,SoftwareType,DateUTC
2015-06-02 00:24:00,49.6,49.0,30.17,WSW,245,0.0,1.0,97,0.00,,,0.00,weatherlink.com 1.10,2015-06-02 04:24:00,
2015-06-02 00:39:00,49.4,49.0,30.17,WSW,246,0.0,0.0,97,0.00,,,0.00,weatherlink.com 1.10,2015-06-02 04:39:00,
2015-06-02 00:54:00,49.2,48.0,30.17,WSW,246,0.0,0.0,97,0.00,,,0.00,weatherlink.com 1.10,2015-06-02 04:54:00,
2015-06-02 01:09:00,48.9,48.0,30.16,WSW,246,0.0,0.0,97,0.00,,,0.00,weatherlink.com 1.10,2015-06-02 05:09:00,
2015-06-02 01:24:00,48.9,48.0,30.16,WSW,248,0.0,0.0,97,0.00,,,0.00,weatherlink.com 1.10,2015-06-02 05:24:00,
2015-06-02 01:39:00,48.8,48.0,30.16,WSW,248,0.0,0.0,97,0.00,,,0.00,weatherlink.com 1.10,2015-06-02 05:39:00,
2015-06-02 01:54:00,48.8,48.0,30.14,WSW,248,0.0,0.0,97,0.00,,,0.00,weatherlink.com 1.10,2015-06-02 05:54:00,
2015-06-02 02:09:00,48.7,48.0,30.14,WSW,248,0.0,0.0,97,0.00,,,0.00,weatherlink.com 1.10,2015-06-02 06:09:00,
2015-06-02 02:24:00,48.6,48.0,30.14,WSW,248,0.0,0.0,97,0.00,,,0.00,weatherlink.com 1.10,2015-06-02 06:24:00,
2015-06-02 02:39:00,48.7,48.0,30.14,WSW,248,0.0,0.0,98,0.00,,,0.00,weatherlink.com 1.10,2015-06-02 06:39:00,
2015-06-02 02:54:00,48.7,48.0,30.15,WSW,248,0.0,0.0,98,0.00,,,0.00,weatherlink.com 1.10,2015-06-02 06:54:00,
2015-06-02 03:09:00,48.7,48.0,30.15,WSW,248,0.0,0.0,98,0.00,,,0.00,weatherlink.com 1.10,2015-06-02 07:09:00,
2015-06-02 03:24:00,48.8,48.0,30.15,WSW,248,0.0,0.0,98,0.00,,,0.00,weatherlink.com 1.10,2015-06-02 07:24:00,
2015-06-02 03:39:00,48.9,48.0,30.15,WSW,248,0.0,0.0,98,0.00,,,0.00,weatherlink.com 1.10,2015-06-02 07:39:00,
2015-06-02 03:54:00,48.9,48.0,30.15,WSW,248,0.0,0.0,98,0.00,,,0.00,weatherlink.com 1.10,2015-06-02 07:54:00,
2015-06-02 04:09:00,48.9,48.0,30.15,WSW,248,0.0,0.0,98,0.00,,,0.00,weatherlink.com 1.10,2015-06-02 08:09:00,
2015-06-02 04:24:00,48.8,48.0,30.14,WSW,248,0.0,0.0,98,0.00,,,0.00,weatherlink.com 1.10,2015-06-02 08:24:00,
2015-06-02 04:39:00,48.9,48.0,30.14,WSW,248,0.0,0.0,98,0.00,,,0.00,weatherlink.com 1.10,2015-06-02 08:39:00,
2015-06-02 04:54:00,48.9,48.0,30.14,WSW,248,0.0,0.0,98,0.00,,,0.00,weatherlink.com 1.10,2015-06-02 08:54:00,
2015-06-02 05:09:00,48.9,48.0,30.14,WSW,248,0.0,0.0,98,0.00,,,0.00,weatherlink.com 1.10,2015-06-02 09:09:00,
2015-06-02 05:25:00,48.9,48.0,30.15,WSW,248,0.0,0.0,98,0.00,,,0.00,weatherlink.com 1.10,2015-06-02 09:25:00,
2015-06-02 05:40:00,48.9,48.0,30.15,WSW,248,0.0,0.0,98,0.00,,,0.00,weatherlink.com 1.10,2015-06-02 09:40:00,
2015-06-02 05:55:00,48.9,48.0,30.15,WSW,248,0.0,0.0,98,0.00,,,0.00,weatherlink.com 1.10,2015-06-02 09:55:00,
2015-06-02 06:10:00,49.1,49.0,30.14,WSW,248,0.0,0.0,98,0.00,,,0.00,weatherlink.com 1.10,2015-06-02 10:10:00,
2015-06-02 06:25:00,49.3,49.0,30.14,WSW,248,0.0,0.0,98,0.00,,,0.00,weatherlink.com 1.10,2015-06-02 10:25:00,
2015-06-02 06:40:00,49.2,49.0,30.14,WSW,248,0.0,0.0,98,0.00,,,0.00,weatherlink.com 1.10,2015-06-02 10:40:00,
2015-06-02 06:55:00,49.5,49.0,30.14,NW,325,0.0,0.0,98,0.00,,,0.00,weatherlink.com 1.10,2015-06-02 10:55:00,
2015-06-02 07:10:00,49.7,49.0,30.14,NW,326,0.0,0.0,98,0.00,,,0.00,weatherlink.com 1.10,2015-06-02 11:10:00,
2015-06-02 07:25:00,49.7,49.0,30.15,NW,326,0.0,0.0,98,0.00,,,0.00,weatherlink.com 1.10,2015-06-02 11:25:00,
2015-06-02 07:40:00,49.9,49.0,30.14,NW,326,0.0,0.0,98,0.00,,,0.00,weatherlink.com 1.10,2015-06-02 11:40:00,
2015-06-02 07:56:00,50.1,49.0,30.15,NW,326,0.0,0.0,97,0.00,,,0.00,weatherlink.com 1.10,2015-06-02 11:56:00,
2015-06-02 08:10:00,50.7,50.0,30.15,NW,326,0.0,0.0,97,0.00,,,0.00,weatherlink.com 1.10,2015-06-02 12:10:00,
2015-06-02 08:25:00,51.6,51.0,30.15,NW,326,0.0,0.0,96,0.00,,,0.00,weatherlink.com 1.10,2015-06-02 12:25:00,
2015-06-02 08:40:00,52.4,51.0,30.15,NW,326,0.0,0.0,95,0.00,,,0.00,weatherlink.com 1.10,2015-06-02 12:40:00,
2015-06-02 08:55:00,52.6,50.0,30.16,NE,44,0.0,1.0,91,0.00,,,0.00,weatherlink.com 1.10,2015-06-02 12:55:00,
2015-06-02 09:10:00,53.4,50.0,30.16,NE,54,0.0,1.0,89,0.00,,,0.00,weatherlink.com 1.10,2015-06-02 13:10:00,
2015-06-02 09:25:00,53.8,50.0,30.16,NE,44,0.0,1.0,88,0.00,,,0.00,weatherlink.com 1.10,2015-06-02 13:25:00,
2015-06-02 09:40:00,54.1,50.0,30.16,NE,49,0.0,1.0,86,0.00,,,0.00,weatherlink.com 1.10,2015-06-02 13:40:00,
2015-06-02 09:55:00,54.5,50.0,30.16,NE,46,0.0,1.0,86,0.00,,,0.00,weatherlink.com 1.10,2015-06-02 13:55:00,
2015-06-02 10:10:00,54.9,50.0,30.16,NE,47,0.0,0.0,84,0.00,,,0.00,weatherlink.com 1.10,2015-06-02 14:10:00,
2015-06-02 10:25:00,55.5,51.0,30.16,NE,44,0.0,0.0,84,0.00,,,0.00,weatherlink.com 1.10,2015-06-02 14:25:00,
2015-06-02 10:40:00,55.5,51.0,30.16,NE,44,0.0,1.0,84,0.00,,,0.00,weatherlink.com 1.10,2015-06-02 14:40:00,
2015-06-02 10:55:00,56.1,51.0,30.16,NE,44,0.0,0.0,84,0.00,,,0.00,weatherlink.com 1.10,2015-06-02 14:55:00,
2015-06-02 11:10:00,56.9,51.0,30.16,NNE,13,0.0,0.0,81,0.00,,,0.00,weatherlink.com 1.10,2015-06-02 15:10:00,
2015-06-02 11:25:00,56.7,51.0,30.15,NE,41,0.0,0.0,81,0.00,,,0.00,weatherlink.com 1.10,2015-06-02 15:25:00,
2015-06-02 11:40:00,56.0,50.0,30.16,NNE,32,0.0,0.0,81,0.00,,,0.00,weatherlink.com 1.10,2015-06-02 15:40:00,
2015-06-02 11:55:00,56.7,52.0,30.16,NNE,33,0.0,0.0,84,0.00,,,0.00,weatherlink.com 1.10,2015-06-02 15:55:00,
2015-06-02 12:10:00,57.0,51.0,30.16,NNE,33,0.0,0.0,81,0.00,,,0.00,weatherlink.com 1.10,2015-06-02 16:10:00,
2015-06-02 12:25:00,56.6,51.0,30.16,SW,221,0.0,0.0,80,0.00,,,0.00,weatherlink.com 1.10,2015-06-02 16:25:00,
2015-06-02 12:41:00,56.2,50.0,30.15,NNE,23,0.0,0.0,80,0.00,,,0.00,weatherlink.com 1.10,2015-06-02 16:41:00,
2015-06-02 12:55:00,56.4,51.0,30.15,NNE,20,0.0,2.0,83,0.00,,,0.00,weatherlink.com 1.10,2015-06-02 16:55:00,
2015-06-02 13:10:00,56.5,51.0,30.15,NNE,20,0.0,2.0,81,0.00,,,0.00,weatherlink.com 1.10,2015-06-02 17:10:00,
2015-06-02 13:25:00,58.6,53.0,30.15,NNE,20,0.0,0.0,82,0.00,,,0.00,weatherlink.com 1.10,2015-06-02 17:25:00,
2015-06-02 13:40:00,59.8,53.0,30.14,SW,235,2.0,2.0,77,0.00,,,0.00,weatherlink.com 1.10,2015-06-02 17:40:00,
2015-06-02 13:55:00,60.2,52.0,30.14,NNE,20,1.0,1.0,75,0.00,,,0.00,weatherlink.com 1.10,2015-06-02 17:55:00,
2015-06-02 14:10:00,59.8,53.0,30.13,SSE,159,0.0,1.0,79,0.00,,,0.00,weatherlink.com 1.10,2015-06-02 18:10:00,
2015-06-02 14:25:00,60.5,54.0,30.13,SW,236,0.0,1.0,79,0.00,,,0.00,weatherlink.com 1.10,2015-06-02 18:25:00,
2015-06-02 14:40:00,60.8,54.0,30.13,West,273,0.0,2.0,77,0.00,,,0.00,weatherlink.com 1.10,2015-06-02 18:40:00,
2015-06-02 14:55:00,59.9,52.0,30.13,NNE,25,0.0,2.0,76,0.00,,,0.00,weatherlink.com 1.10,2015-06-02 18:55:00,
2015-06-02 15:11:00,59.5,53.0,30.13,NNE,18,0.0,1.0,78,0.00,,,0.00,weatherlink.com 1.10,2015-06-02 19:11:00,
2015-06-02 15:25:00,59.9,52.0,30.12,SSW,212,1.0,2.0,76,0.00,,,0.00,weatherlink.com 1.10,2015-06-02 19:25:00,
2015-06-02 15:40:00,60.7,53.0,30.12,SW,214,0.0,1.0,77,0.00,,,0.00,weatherlink.com 1.10,2015-06-02 19:40:00,
2015-06-02 15:56:00,63.0,55.0,30.11,NW,304,0.0,1.0,76,0.00,,,0.00,weatherlink.com 1.10,2015-06-02 19:56:00,
2015-06-02 16:26:00,63.7,53.0,30.11,NE,41,1.0,2.0,69,0.00,,,0.00,weatherlink.com 1.10,2015-06-02 20:26:00,
2015-06-02 16:41:00,63.6,54.0,30.11,NE,40,1.0,1.0,72,0.00,,,0.00,weatherlink.com 1.10,2015-06-02 20:41:00,
2015-06-02 16:56:00,63.4,55.0,30.10,NE,43,0.0,1.0,74,0.00,,,0.00,weatherlink.com 1.10,2015-06-02 20:56:00,
2015-06-02 17:11:00,64.5,55.0,30.10,NW,307,0.0,0.0,72,0.00,,,0.00,weatherlink.com 1.10,2015-06-02 21:11:00,
2015-06-02 17:26:00,63.7,55.0,30.10,NE,40,0.0,1.0,73,0.00,,,0.00,weatherlink.com 1.10,2015-06-02 21:26:00,
2015-06-02 17:41:00,63.7,54.0,30.10,NE,40,0.0,1.0,71,0.00,,,0.00,weatherlink.com 1.10,2015-06-02 21:41:00,
2015-06-02 17:56:00,63.4,54.0,30.10,SW,231,0.0,1.0,72,0.00,,,0.00,weatherlink.com 1.10,2015-06-02 21:56:00,
2015-06-02 18:11:00,63.3,55.0,30.10,NNE,20,0.0,1.0,74,0.00,,,0.00,weatherlink.com 1.10,2015-06-02 22:11:00,
2015-06-02 18:26:00,64.2,54.0,30.10,NNE,16,0.0,2.0,69,0.00,,,0.00,weatherlink.com 1.10,2015-06-02 22:26:00,
2015-06-02 18:41:00,63.7,55.0,30.10,NNE,25,0.0,1.0,74,0.00,,,0.00,weatherlink.com 1.10,2015-06-02 22:41:00,
2015-06-02 18:56:00,64.4,56.0,30.10,NNE,26,0.0,1.0,74,0.00,,,0.00,weatherlink.com 1.10,2015-06-02 22:56:00,